History for DABS

Tebessa, Algeria

Daily Weekly Monthly
Daily Summary for Thursday, October 30, 2014
  Actual: Average: Record:
Temperature
Mean Temperature: 54 °F / 12 °C - :  
Max Temperature: 68 °F / 20 °C 62 °F / 16 °C - ()
Min Temperature: 41 °F / 5 °C 41 °F / 5 °C - ()
Degree Days
Heating Degree Days: 10    
Growing Degree Days 4 (Base 50)    
Moisture
Dew Point 44 °F / 7 °C    
Average Humidity 67    
Maximum Humidity 93    
Minimum Humidity 30    
Precipitation
Precipitation 0.00 in / 0.0 cm 0.04 in / 1.0 cm - ()
Sea Level Pressure
Sea Level Pressure 30.19 in / 1022.35 hPa   
Wind
Wind Speed 2 mph / 3 km/h ()  
Max Wind Speed 12 mph / 18 km/h   
Max Gust Speed -   
Visibility 7.0 miles / 11.4 kilometers   
Events     

Key: T is trace of precipitation, MM is missing value
Source: Averaged Metar Reports

Graphs

Observations

History Graphs Observations

Obs Go Here...

Features

Weather Apps

WunderRadio

Weather Underground Apps
Check out our wide variety of mobile and setup applications.

Weather Underground Applications

Top of Page

Copyright© 2014
Weather Underground, Inc.
Time(CET)TemperatureDew PointHumidity Sea Level Pressure Visibility Wind DirectionWind SpeedGust SpeedPrecipitationEvents Conditions
12:00 AM 55.4 °F / 13.0 °C 48.2 °F / 9.0 °C 77% 30.15 in / 1021 hPa - Calm Calm - N/A   Clear
12:30 AM 55.4 °F / 13.0 °C 48.2 °F / 9.0 °C 77% 30.15 in / 1021 hPa - Calm Calm - N/A   Clear
1:00 AM 53 °F / 12 °C 48 °F / 9 °C 78%  in /  hPa 6 miles / 10 kilometers Calm Calm - -   Clear
1:00 AM 53.6 °F / 12.0 °C 48.2 °F / 9.0 °C 82% 30.18 in / 1022 hPa - Calm Calm - N/A   Clear
1:30 AM 51.8 °F / 11.0 °C 48.2 °F / 9.0 °C 88% 30.18 in / 1022 hPa - Calm Calm - N/A   Clear
2:00 AM 51.8 °F / 11.0 °C 48.2 °F / 9.0 °C 88% 30.18 in / 1022 hPa - Calm Calm - N/A   Clear
2:30 AM 51.8 °F / 11.0 °C 48.2 °F / 9.0 °C 88% 30.18 in / 1022 hPa - Calm Calm - N/A   Clear
3:00 AM 50.0 °F / 10.0 °C 46.4 °F / 8.0 °C 87% 30.18 in / 1022 hPa - Calm Calm - N/A   Clear
3:30 AM 48.2 °F / 9.0 °C 46.4 °F / 8.0 °C 93% 30.18 in / 1022 hPa - Calm Calm - N/A   Clear
4:00 AM 47 °F / 8 °C 44 °F / 7 °C 86%  in /  hPa 6 miles / 10 kilometers Calm Calm - -  
4:00 AM 46.4 °F / 8.0 °C 44.6 °F / 7.0 °C 93% 30.18 in / 1022 hPa - Calm Calm - N/A   Clear
4:30 AM 46.4 °F / 8.0 °C 44.6 °F / 7.0 °C 93% 30.18 in / 1022 hPa - Calm Calm - N/A   Clear
5:00 AM 46.4 °F / 8.0 °C 44.6 °F / 7.0 °C 93% 30.18 in / 1022 hPa - Calm Calm - N/A   Clear
5:30 AM 46.4 °F / 8.0 °C 44.6 °F / 7.0 °C 93% 30.18 in / 1022 hPa - Calm Calm - N/A   Clear
6:00 AM 42.8 °F / 6.0 °C 41.0 °F / 5.0 °C 93% 30.18 in / 1022 hPa - Calm Calm - N/A   Clear
6:30 AM 42.8 °F / 6.0 °C 41.0 °F / 5.0 °C 93% 30.18 in / 1022 hPa - Calm Calm - N/A   Clear
7:00 AM 42 °F / 6 °C 39 °F / 4 °C 87%  in /  hPa 6 miles / 10 kilometers Calm Calm - -   Scattered Clouds
7:00 AM 42.8 °F / 6.0 °C 39.2 °F / 4.0 °C 87% 30.21 in / 1023 hPa - Calm Calm - N/A   Clear
7:30 AM 42.8 °F / 6.0 °C 39.2 °F / 4.0 °C 87% 30.21 in / 1023 hPa - Calm Calm - N/A   Clear
8:00 AM 44.6 °F / 7.0 °C 41.0 °F / 5.0 °C 87% 30.21 in / 1023 hPa - Calm Calm - N/A   Clear
8:30 AM 48.2 °F / 9.0 °C 42.8 °F / 6.0 °C 82% 30.21 in / 1023 hPa - Calm Calm - N/A   Clear
9:00 AM 51.8 °F / 11.0 °C 46.4 °F / 8.0 °C 82% 30.21 in / 1023 hPa - Calm Calm - N/A   Clear
9:30 AM 53.6 °F / 12.0 °C 46.4 °F / 8.0 °C 77% 30.21 in / 1023 hPa - Calm Calm - N/A   Clear
10:00 AM 57 °F / 14 °C 48 °F / 9 °C 65%  in /  hPa 9 miles / 15 kilometers Calm Calm - -   Scattered Clouds
10:00 AM 57.2 °F / 14.0 °C 48.2 °F / 9.0 °C 72% 30.21 in / 1023 hPa - Calm Calm - N/A   Clear
10:30 AM 59.0 °F / 15.0 °C 48.2 °F / 9.0 °C 67% 30.21 in / 1023 hPa - Calm Calm - N/A   Clear
11:00 AM 59.0 °F / 15.0 °C 48.2 °F / 9.0 °C 67% 30.21 in / 1023 hPa 6.2 miles / 10.0 kilometers NW 9.2 mph / 14.8 km/h - N/A   Partly Cloudy
11:30 AM 60.8 °F / 16.0 °C 48.2 °F / 9.0 °C 63% 30.21 in / 1023 hPa 6.2 miles / 10.0 kilometers Calm Calm - N/A   Partly Cloudy
12:00 PM 66.2 °F / 19.0 °C 46.4 °F / 8.0 °C 49% 30.21 in / 1023 hPa 6.2 miles / 10.0 kilometers NW 4.6 mph / 7.4 km/h - N/A   Partly Cloudy
12:30 PM 66.2 °F / 19.0 °C 44.6 °F / 7.0 °C 46% 30.21 in / 1023 hPa 6.2 miles / 10.0 kilometers WNW 4.6 mph / 7.4 km/h - N/A   Partly Cloudy
1:00 PM 66 °F / 19 °C 43 °F / 6 °C 32%  in /  hPa 16 miles / 25 kilometers WNW 4.6 mph / 7.4 km/h - -   Partly Cloudy
1:00 PM 66.2 °F / 19.0 °C 42.8 °F / 6.0 °C 43% 30.21 in / 1023 hPa 6.2 miles / 10.0 kilometers WNW 4.6 mph / 7.4 km/h - N/A   Partly Cloudy
1:30 PM 68.0 °F / 20.0 °C 42.8 °F / 6.0 °C 40% 30.21 in / 1023 hPa 6.2 miles / 10.0 kilometers NW 11.5 mph / 18.5 km/h - N/A   Partly Cloudy
2:00 PM 68.0 °F / 20.0 °C 44.6 °F / 7.0 °C 43% 30.18 in / 1022 hPa 6.2 miles / 10.0 kilometers NNW 9.2 mph / 14.8 km/h - N/A   Scattered Clouds
2:30 PM 68.0 °F / 20.0 °C 44.6 °F / 7.0 °C 43% 30.18 in / 1022 hPa 6.2 miles / 10.0 kilometers NNW 11.5 mph / 18.5 km/h - N/A   Scattered Clouds
3:00 PM 68.0 °F / 20.0 °C 44.6 °F / 7.0 °C 43% 30.18 in / 1022 hPa 6.2 miles / 10.0 kilometers NNW 6.9 mph / 11.1 km/h - N/A   Partly Cloudy
3:30 PM 68.0 °F / 20.0 °C 44.6 °F / 7.0 °C 43% 30.18 in / 1022 hPa 6.2 miles / 10.0 kilometers North 11.5 mph / 18.5 km/h - N/A   Partly Cloudy
4:00 PM 67 °F / 19 °C 43 °F / 6 °C 30%  in /  hPa 9 miles / 15 kilometers NNW 9.2 mph / 14.8 km/h - -   Scattered Clouds
4:00 PM 66.2 °F / 19.0 °C 42.8 °F / 6.0 °C 43% 30.18 in / 1022 hPa 6.2 miles / 10.0 kilometers NNW 9.2 mph / 14.8 km/h - N/A   Partly Cloudy
4:30 PM 66.2 °F / 19.0 °C 42.8 °F / 6.0 °C 43% 30.18 in / 1022 hPa 6.2 miles / 10.0 kilometers WNW 6.9 mph / 11.1 km/h - N/A   Partly Cloudy
5:00 PM 66.2 °F / 19.0 °C 42.8 °F / 6.0 °C 43% 30.18 in / 1022 hPa 6.2 miles / 10.0 kilometers WNW 11.5 mph / 18.5 km/h - N/A   Partly Cloudy
5:30 PM 64.4 °F / 18.0 °C 42.8 °F / 6.0 °C 45% 30.18 in / 1022 hPa 6.2 miles / 10.0 kilometers WNW 11.5 mph / 18.5 km/h - N/A   Partly Cloudy
6:00 PM 62.6 °F / 17.0 °C 42.8 °F / 6.0 °C 48% 30.18 in / 1022 hPa 6.2 miles / 10.0 kilometers NW 11.5 mph / 18.5 km/h - N/A   Partly Cloudy
6:30 PM 60.8 °F / 16.0 °C 44.6 °F / 7.0 °C 55% 30.18 in / 1022 hPa - Calm Calm - N/A   Clear
7:00 PM 57 °F / 14 °C 40 °F / 4 °C 41%  in /  hPa 9 miles / 15 kilometers Calm Calm - -  
7:00 PM 57.2 °F / 14.0 °C 39.2 °F / 4.0 °C 51% 30.21 in / 1023 hPa - Calm Calm - N/A   Clear
7:30 PM 55.4 °F / 13.0 °C 39.2 °F / 4.0 °C 54% 30.21 in / 1023 hPa - Calm Calm - N/A   Clear